sat.trackr.live / text

‹ back to catalog

2024-125A

NORAD 60203 · 2024-125A

PAYLOAD ACTIVE UNKNOWN

§ Identity

Operator
Country
US
Launch date
2024-07-04
Launch site
AFWTR
Launch vehicle
Mass (kg)
RCS (m²)

External: N2YO · Heavens-Above · Gunter

§ Orbital elements

Epoch: 2026-05-25T02:13:41.923776Z

Period
92.10 min
Inclination
97.2316°
Eccentricity
0.0007673
Mean motion
15.63465099 rev/d
Perigee alt
372.5 km
Apogee alt
382.8 km
Semi-major
6,755.8 km
B*
5.6866e-4
RAAN
2.9666°
Arg perigee
293.6203°
Mean anomaly
66.4250°
Rev number
10,602

§ Raw data

2024-125A1 60203U 24125A   26145.09284634  .00052693  00000+0  56866-3 0  99972 60203  97.2316   2.9666 0007673 293.6203  66.4250 15.63465099106028

JSON: /api/v1/satellites/60203 · /tle

For live sub-satellite position, see the globe view (requires WebGL).

§ Visibility from observer

Set your observer location to see the next 7 days of passes ≥ 10°. The values pass through the URL so the page stays shareable.

No JS? Fill the form by hand. The geolocation button needs JavaScript.